sat.trackr.live / text

‹ back to catalog

STARLINK-11556 [DTC]

NORAD 62838 · 2025-019K

PAYLOAD ACTIVE UNKNOWN

§ Identity

Operator
Country
US
Launch date
2025-01-27
Launch site
AFETR
Launch vehicle
Mass (kg)
RCS (m²)

Purposes: comms

External: N2YO · Heavens-Above · Gunter

§ Orbital elements

Epoch: 2026-09-21T05:05:06.851040Z

Period
91.66 min
Inclination
43.0001°
Eccentricity
0.0002298
Mean motion
15.70984444 rev/d
Perigee alt
354.5 km
Apogee alt
357.6 km
Semi-major
6,734.2 km
B*
1.2684e-3
RAAN
207.2271°
Arg perigee
262.0485°
Mean anomaly
98.0122°
Rev number
9,463

§ Raw data

STARLINK-11556 [DTC]1 62838U 25019K   26264.21188485  .00166616  00000+0  12684-2 0  99992 62838  43.0001 207.2271 0002298 262.0485  98.0122 15.70984444 94636

JSON: /api/v1/satellites/62838 · /tle

For live sub-satellite position, see the globe view (requires WebGL).

§ Visibility from observer

Set your observer location to see the next 7 days of passes ≥ 10°. The values pass through the URL so the page stays shareable.

No JS? Fill the form by hand. The geolocation button needs JavaScript.